This is the latest recevied weather packets stored in our database for station/object W7TTE. If no packets are shown the sender has not sent any weather packets the latest 10 day(s).
| Time | Temp. | Humidity | Pressure | Rain* | Wind** | Luminosity | Snow |
|---|---|---|---|---|---|---|---|
| 1777693342 | 26.11° C | 21% | 1011.2 hPa | 0 mm | - | 0 W/m² | - |
| 1777693040 | 26.67° C | 21% | 1011.4 hPa | 0 mm | - | 0 W/m² | - |
| 1777692738 | 26.67° C | 20% | 1011.2 hPa | 0 mm | - | 0 W/m² | - |
| 1777692434 | 27.22° C | 21% | 1011.1 hPa | 0 mm | - | 0 W/m² | - |
| 1777692129 | 26.67° C | 21% | 1011.2 hPa | 0 mm | - | 0 W/m² | - |
| 1777691828 | 26.67° C | 21% | 1011.2 hPa | 0 mm | - | 0 W/m² | - |
| 1777691525 | 27.22° C | 21% | 1011 hPa | 0 mm | - | 0 W/m² | - |
| 1777691224 | 27.78° C | 21% | 1010.8 hPa | 0 mm | - | 0 W/m² | - |
| 1777690921 | 27.78° C | 21% | 1010.9 hPa | 0 mm | - | 0 W/m² | - |
| 1777690632 | 27.78° C | 20% | 1010.8 hPa | 0 mm | - | 0 W/m² | - |
| 1777690316 | 27.78° C | 20% | 1010.8 hPa | 0 mm | - | 0 W/m² | - |
| 1777690014 | 28.33° C | 20% | 1010.6 hPa | 0 mm | - | 0 W/m² | - |
| 1777689712 | 28.33° C | 19% | 1010.7 hPa | 0 mm | - | 0 W/m² | - |
| 1777689410 | 28.33° C | 19% | 1010.6 hPa | 0 mm | - | 0 W/m² | - |
| 1777689107 | 28.89° C | 19% | 1010.5 hPa | 0 mm | - | 0 W/m² | - |
| 1777688804 | 28.89° C | 18% | 1010.6 hPa | 0 mm | - | 0 W/m² | - |
| 1777688501 | 29.44° C | 18% | 1010.6 hPa | 0 mm | - | 1 W/m² | - |
| 1777688198 | 30° C | 17% | 1010.5 hPa | 0 mm | - | 2 W/m² | - |
| 1777687895 | 30.56° C | 16% | 1010.4 hPa | 0 mm | - | 4 W/m² | - |
| 1777687592 | 30.56° C | 16% | 1010.4 hPa | 0 mm | - | 6 W/m² | - |
| 1777687289 | 30.56° C | 16% | 1010.5 hPa | 0 mm | - | 9 W/m² | - |
| 1777686987 | 30.56° C | 16% | 1010.5 hPa | 0 mm | - | 12 W/m² | - |
| 1777686683 | 31.11° C | 16% | 1010.4 hPa | 0 mm | - | 16 W/m² | - |
| 1777686381 | 31.11° C | 16% | 1010.4 hPa | 0 mm | - | 19 W/m² | - |
| 1777686078 | 31.11° C | 16% | 1010.4 hPa | 0 mm | - | 22 W/m² | - |
* Rain latest hour (hover to see other rain measurements)
** Current wind speed in m/s (hover to see current wind gust speed)